Voltar ao catálogo

P 76-5 DEB

AtivoSSO
NORAD 59984·DEBRIS·🇺🇸 United States

Lançado May 22, 1976 de Vandenberg Space Force Base

Loading…

Próximas Passagens (próximas 24 horas)

TLE

AtualizadoSource: Space-Track

Época: Sep 14, 2026, 02:01 UTC

1 59984U 76047E   26257.08451911  .00000808  00000-0  91341-3 0  9997
2 59984  99.8547 111.9106 0041106 101.1020 259.4753 13.73482004284387

Acompanhe P 76-5 DEB em tempo real com AllMySat

Download on the App Store